This is the latest recevied weather packets stored in our database for station/object VR2MW-X. If no packets are shown the sender has not sent any weather packets the latest 10 day(s).
| Time | Temp. | Humidity | Pressure | Rain* | Wind** | Luminosity | Snow |
|---|---|---|---|---|---|---|---|
| 1777699779 | 27.78° C | 71% | 1011.7 hPa | - | - | - | - |
| 1777699169 | 27.78° C | 71% | 1012 hPa | - | - | - | - |
| 1777698558 | 27.22° C | 73% | 1012.1 hPa | - | - | - | - |
| 1777697948 | 27.22° C | 73% | 1012.3 hPa | - | - | - | - |
| 1777697337 | 27.22° C | 71% | 1012.5 hPa | - | - | - | - |
| 1777696727 | 27.22° C | 74% | 1012.5 hPa | - | - | - | - |
| 1777696117 | 26.11° C | 77% | 1012.5 hPa | - | - | - | - |
| 1777695505 | 26.11° C | 78% | 1012.5 hPa | - | - | - | - |
| 1777694895 | 26.11° C | 76% | 1012.5 hPa | - | - | - | - |
| 1777694284 | 27.22° C | 77% | 1012.6 hPa | - | - | - | - |
| 1777693673 | 26.11° C | 78% | 1012.6 hPa | - | - | - | - |
| 1777693063 | 26.11° C | 77% | 1012.7 hPa | - | - | - | - |
| 1777692451 | 26.11° C | 76% | 1012.8 hPa | - | - | - | - |
| 1777691840 | 26.11° C | 76% | 1013.1 hPa | - | - | - | - |
| 1777691230 | 26.11° C | 79% | 1013.1 hPa | - | - | - | - |
| 1777690633 | 26.11° C | 79% | 1013.1 hPa | - | - | - | - |
| 1777690009 | 26.11° C | 77% | 1013.1 hPa | - | - | - | - |
| 1777689399 | 26.11° C | 78% | 1013.1 hPa | - | - | - | - |
| 1777688788 | 26.11° C | 79% | 1013.1 hPa | - | - | - | - |
| 1777688178 | 25° C | 80% | 1013.2 hPa | - | - | - | - |
| 1777687567 | 25° C | 80% | 1013.1 hPa | - | - | - | - |
| 1777686957 | 25° C | 80% | 1013.1 hPa | - | - | - | - |
| 1777686346 | 25° C | 80% | 1013.1 hPa | - | - | - | - |
| 1777685736 | 25° C | 80% | 1013.1 hPa | - | - | - | - |
| 1777685126 | 25° C | 78% | 1013.1 hPa | - | - | - | - |
* Rain since midnight (hover to see other rain measurements)
** Current wind speed in m/s (hover to see current wind gust speed)